Location: Peebles
(55.6412°N, 3.1714°W)
Time: 23:28:51
(UTC+01:00)

CENTAUR R/B - Pass Details

Date: 19 January 2022
Orbit: 716 x 1471 km, 63.4° (Epoch: 08 May)

Event Time Altitude Azimuth Distance (km) Brightness Sun altitude
Rises 20:49:47 0° 276° (W) 3,699 6.5 -36.9°
Reaches altitude 10° 20:52:18 10° 283° (WNW) 2,855 5.7 -37.2°
Enters shadow 20:58:06 46° 338° (NNW) 1,535 3.6 -38.0°
